• în România
  • Lista ţărilor
  • Pe 7 zile
  • Temperatura apei
  • Hartă satelitară
  • Meteo pe hartă
  • Widget-uri
  • user-avatar
    Intrare

    Meteo pe oră la Batina

    Astăzi, 20 August, Duminică

    Timp Temperatura Precipitaţii Vânt Presiune Umiditate
    00:00 +28°C° 0 mm 2 m/s 675 mmHg 39%
    01:00 +27°C° 0 mm 2 m/s 674 mmHg 41%
    02:00 +27°C° 0 mm 2 m/s 674 mmHg 42%
    03:00 +26°C° 0 mm 2 m/s 674 mmHg 43%
    04:00 +26°C° 0 mm 2 m/s 674 mmHg 43%
    05:00 +26°C° 0 mm 2 m/s 674 mmHg 43%
    06:00 +26°C° 0 mm 2 m/s 674 mmHg 43%
    07:00 +27°C° 0 mm 2 m/s 675 mmHg 38%
    08:00 +29°C° 0 mm 2 m/s 675 mmHg 34%
    09:00 +30°C° 0 mm 2 m/s 676 mmHg 29%
    10:00 +31°C° 0 mm 2 m/s 676 mmHg 27%
    11:00 +33°C° 0 mm 3 m/s 676 mmHg 25%
    12:00 +34°C° 0 mm 3 m/s 676 mmHg 23%
    13:00 +34°C° 0 mm 3 m/s 676 mmHg 23%
    14:00 +35°C° 0 mm 4 m/s 675 mmHg 23%
    15:00 +35°C° 0 mm 4 m/s 675 mmHg 23%
    16:00 +34°C° 0 mm 4 m/s 675 mmHg 26%
    17:00 +33°C° 0 mm 5 m/s 675 mmHg 29%
    18:00 +32°C° 0 mm 5 m/s 674 mmHg 33%
    19:00 +30°C° 0 mm 5 m/s 675 mmHg 37%
    20:00 +28°C° 0 mm 4 m/s 675 mmHg 41%
    21:00 +27°C° 0 mm 4 m/s 675 mmHg 46%
    22:00 +26°C° 0 mm 4 m/s 675 mmHg 47%
    23:00 +26°C° 0 mm 3 m/s 675 mmHg 48%

    Mâine, 21 August, Luni

    Timp Temperatura Precipitaţii Vânt Presiune Umiditate
    00:00 +25°C° 0 mm 3 m/s 674 mmHg 49%
    01:00 +25°C° 0 mm 3 m/s 674 mmHg 50%
    02:00 +24°C° 0 mm 2 m/s 674 mmHg 50%
    03:00 +24°C° 0 mm 2 m/s 674 mmHg 51%
    04:00 +24°C° 0 mm 2 m/s 674 mmHg 51%
    05:00 +24°C° 0 mm 2 m/s 674 mmHg 51%
    06:00 +23°C° 0 mm 2 m/s 674 mmHg 51%
    07:00 +25°C° 0 mm 2 m/s 674 mmHg 46%
    08:00 +26°C° 0 mm 2 m/s 675 mmHg 41%
    09:00 +27°C° 0 mm 2 m/s 675 mmHg 36%
    10:00 +28°C° 0 mm 2 m/s 675 mmHg 33%
    11:00 +30°C° 0 mm 2 m/s 675 mmHg 30%
    12:00 +31°C° 0 mm 3 m/s 675 mmHg 28%
    13:00 +31°C° 0 mm 3 m/s 675 mmHg 26%
    14:00 +33°C° 0 mm 4 m/s 674 mmHg 25%
    15:00 +33°C° 0 mm 5 m/s 674 mmHg 24%
    16:00 +32°C° 0 mm 5 m/s 674 mmHg 25%
    17:00 +30°C° 0 mm 5 m/s 674 mmHg 26%
    18:00 +29°C° 0 mm 5 m/s 674 mmHg 27%
    19:00 +28°C° 0 mm 5 m/s 674 mmHg 29%
    20:00 +27°C° 0 mm 4 m/s 674 mmHg 32%
    21:00 +26°C° 0 mm 3 m/s 674 mmHg 34%
    22:00 +25°C° 0 mm 3 m/s 674 mmHg 35%
    23:00 +25°C° 0 mm 3 m/s 674 mmHg 37%

    Poimâine, 22 August, Marţi

    Timp Temperatura Precipitaţii Vânt Presiune Umiditate
    00:00 +24°C° 0 mm 2 m/s 673 mmHg 39%
    01:00 +24°C° 0 mm 2 m/s 673 mmHg 40%
    02:00 +23°C° 0 mm 2 m/s 673 mmHg 42%
    03:00 +23°C° 0 mm 1 m/s 673 mmHg 43%
    04:00 +23°C° 0 mm 1 m/s 673 mmHg 43%
    05:00 +23°C° 0 mm 1 m/s 673 mmHg 44%
    06:00 +21°C° 0 mm 0 m/s 673 mmHg 44%
    07:00 +24°C° 0 mm 1 m/s 674 mmHg 40%
    08:00 +26°C° 0 mm 1 m/s 674 mmHg 36%
    09:00 +27°C° 0 mm 2 m/s 675 mmHg 32%
    10:00 +28°C° 0 mm 2 m/s 675 mmHg 29%
    11:00 +29°C° 0 mm 3 m/s 675 mmHg 27%
    12:00 +31°C° 0 mm 3 m/s 675 mmHg 24%
    13:00 +31°C° 0 mm 3 m/s 675 mmHg 23%
    14:00 +31°C° 0 mm 3 m/s 674 mmHg 22%
    15:00 +33°C° 0 mm 3 m/s 674 mmHg 21%
    16:00 +31°C° 0 mm 3 m/s 674 mmHg 22%
    17:00 +32°C° 0 mm 4 m/s 674 mmHg 22%
    18:00 +30°C° 0 mm 4 m/s 674 mmHg 23%
    19:00 +29°C° 0 mm 3 m/s 674 mmHg 27%
    20:00 +28°C° 0 mm 3 m/s 674 mmHg 30%
    21:00 +27°C° 0 mm 2 m/s 674 mmHg 33%
    22:00 +27°C° 0 mm 2 m/s 674 mmHg 35%
    23:00 +26°C° 0 mm 2 m/s 673 mmHg 37%

    23 August, Miercuri

    Timp Temperatura Precipitaţii Vânt Presiune Umiditate
    00:00 +25°C° 0 mm 2 m/s 673 mmHg 39%
    01:00 +25°C° 0 mm 1 m/s 673 mmHg 42%
    02:00 +24°C° 0 mm 1 m/s 672 mmHg 44%
    03:00 +23°C° 0 mm 1 m/s 672 mmHg 47%
    04:00 +23°C° 0 mm 1 m/s 673 mmHg 48%
    05:00 +24°C° 0 mm 1 m/s 673 mmHg 49%
    06:00 +24°C° 0 mm 1 m/s 673 mmHg 49%
    07:00 +25°C° 0 mm 2 m/s 674 mmHg 45%
    08:00 +26°C° 0 mm 2 m/s 674 mmHg 41%
    09:00 +28°C° 0 mm 3 m/s 675 mmHg 37%
    10:00 +29°C° 0 mm 3 m/s 675 mmHg 34%
    11:00 +30°C° 0 mm 4 m/s 675 mmHg 31%
    12:00 +32°C° 0 mm 4 m/s 675 mmHg 28%
    13:00 +32°C° 0 mm 4 m/s 675 mmHg 27%
    14:00 +33°C° 0 mm 4 m/s 674 mmHg 26%
    15:00 +33°C° 0 mm 3 m/s 674 mmHg 25%
    16:00 +33°C° 0 mm 3 m/s 674 mmHg 26%
    17:00 +32°C° 0 mm 4 m/s 674 mmHg 27%
    18:00 +32°C° 0 mm 4 m/s 674 mmHg 29%
    19:00 +30°C° 0 mm 3 m/s 674 mmHg 32%
    20:00 +29°C° 0 mm 3 m/s 674 mmHg 35%
    21:00 +28°C° 0 mm 2 m/s 674 mmHg 38%
    22:00 +27°C° 0 mm 2 m/s 674 mmHg 40%
    23:00 +27°C° 0 mm 1 m/s 674 mmHg 42%

    24 August, Joi

    Timp Temperatura Precipitaţii Vânt Presiune Umiditate
    00:00 +26°C° 0 mm 1 m/s 674 mmHg 44%
    01:00 +26°C° 0 mm 1 m/s 673 mmHg 46%
    02:00 +25°C° 0 mm 1 m/s 673 mmHg 49%
    03:00 +25°C° 0 mm 2 m/s 673 mmHg 51%
    04:00 +25°C° 0 mm 2 m/s 673 mmHg 52%
    05:00 +24°C° 0 mm 2 m/s 674 mmHg 52%
    06:00 +24°C° 0 mm 2 m/s 674 mmHg 53%
    07:00 +26°C° 0 mm 2 m/s 674 mmHg 48%
    08:00 +27°C° 0 mm 3 m/s 675 mmHg 43%
    09:00 +28°C° 0 mm 3 m/s 675 mmHg 38%
    10:00 +29°C° 0 mm 4 m/s 675 mmHg 35%
    11:00 +30°C° 0 mm 4 m/s 675 mmHg 32%
    12:00 +32°C° 0 mm 4 m/s 675 mmHg 29%
    13:00 +32°C° 0 mm 4 m/s 675 mmHg 28%
    14:00 +33°C° 0 mm 4 m/s 675 mmHg 27%
    15:00 +33°C° 0 mm 4 m/s 674 mmHg 26%
    16:00 +33°C° 0 mm 3 m/s 674 mmHg 27%
    17:00 +31°C° 0 mm 3 m/s 674 mmHg 28%
    18:00 +31°C° 0 mm 3 m/s 674 mmHg 28%
    19:00 +30°C° 0 mm 3 m/s 674 mmHg 31%
    20:00 +29°C° 0 mm 2 m/s 674 mmHg 34%
    21:00 +28°C° 0 mm 2 m/s 674 mmHg 36%
    22:00 +28°C° 0 mm 2 m/s 674 mmHg 38%
    23:00 +27°C° 0 mm 2 m/s 674 mmHg 39%

    25 August, Vineri

    Timp Temperatura Precipitaţii Vânt Presiune Umiditate
    00:00 +27°C° 0 mm 2 m/s 674 mmHg 41%
    01:00 +26°C° 0 mm 2 m/s 674 mmHg 43%
    02:00 +26°C° 0 mm 2 m/s 673 mmHg 45%
    03:00 +25°C° 0 mm 3 m/s 673 mmHg 47%
    04:00 +25°C° 0 mm 3 m/s 673 mmHg 48%
    05:00 +25°C° 0 mm 2 m/s 674 mmHg 49%
    06:00 +24°C° 0 mm 2 m/s 674 mmHg 50%
    07:00 +26°C° 0 mm 3 m/s 674 mmHg 45%
    08:00 +27°C° 0 mm 3 m/s 675 mmHg 41%
    09:00 +28°C° 0 mm 3 m/s 675 mmHg 36%
    10:00 +29°C° 0 mm 3 m/s 675 mmHg 34%
    11:00 +30°C° 0 mm 3 m/s 675 mmHg 31%
    12:00 +31°C° 0 mm 3 m/s 675 mmHg 28%
    13:00 +33°C° 0 mm 3 m/s 675 mmHg 27%
    14:00 +33°C° 0 mm 3 m/s 674 mmHg 26%
    15:00 +33°C° 0 mm 3 m/s 674 mmHg 25%
    16:00 +33°C° 0 mm 3 m/s 674 mmHg 26%
    17:00 +31°C° 0 mm 3 m/s 673 mmHg 28%
    18:00 +31°C° 0 mm 3 m/s 673 mmHg 29%
    19:00 +30°C° 0 mm 3 m/s 673 mmHg 31%
    20:00 +29°C° 0 mm 2 m/s 674 mmHg 33%
    21:00 +29°C° 0 mm 2 m/s 674 mmHg 35%
    22:00 +28°C° 0 mm 2 m/s 674 mmHg 36%
    23:00 +28°C° 0 mm 2 m/s 673 mmHg 37%
    Arată mai mult